Weather History for KALK - June, 2013

Change the Weather History Date:

Thursday, June 13, 2013

  Actual Average (KFHU) Record (KFHU)
Temperature  
Mean Temperature 81 °F -  
Max Temperature 93 °F 88 °F 100 °F (2006)
Min Temperature 69 °F 66 °F 54 °F (1989)
Cooling Degree Days 16    
Growing Degree Days 31 (Base 50)    
Moisture  
Dew Point 39 °F    
Average Humidity 23    
Maximum Humidity 44    
Minimum Humidity 11    
Precipitation  
Precipitation 0.00 in - - ()
Sea Level Pressure  
Sea Level Pressure 29.80 in    
Wind  
Wind Speed 13 mph (West)    
Max Wind Speed 23 mph    
Max Gust Speed 30 mph    
Averages and records for this station are not official NWS values.
T = Trace of Precipitation, MM = Missing Value Source: NWS Daily Summary

Daily Weather History Graph

Daily Weather History Graph

Search for Another Location

Airport or City:

Trip Planner

Search our weather history database for the weather conditions in past years. The results will help you decide how hot, cold, wet, or windy it might be!

Date:

Astronomy

Jun. 13, 2013 Rise Set
Actual Time 5:16 AM MST 7:27 PM MST
Civil Twilight 4:48 AM MST 7:55 PM MST
Nautical Twilight 4:13 AM MST 8:30 PM MST
Astronomical Twilight 3:36 AM MST 9:07 PM MST
Moon 9:42 AM MST (6/13) 10:52 PM MST (6/13)
Length of Visible Light 15h 07m
Length of Day
14h 11m
Waxing Crescent, 22% of the Moon is Illuminated
Jun 13
Waxing Crescent
Jun 16
First Quarter
Jun 23
Full
Jun 29
Last Quarter
Jul 8
New

Hourly Weather History & Observations

Time (MST) Temp. Dew Point Humidity Pressure Visibility Wind Dir Wind Speed Gust Speed Precip Events Conditions
12:56 AM 77.0 °F 33.1 °F 20% 29.81 in - SW 13.8 mph - N/A   Clear
1:56 AM 78.1 °F 41.0 °F 27% 29.81 in - SW 16.1 mph 29.9 mph N/A   Clear
2:56 AM 75.0 °F 43.0 °F 32% 29.81 in - WSW 13.8 mph - N/A   Clear
3:56 AM 69.1 °F 46.0 °F 44% 29.83 in - WNW 10.4 mph - N/A   Clear
4:56 AM 69.1 °F 45.0 °F 42% 29.84 in - West 10.4 mph - N/A   Clear
5:56 AM 73.0 °F 45.0 °F 37% 29.83 in - SW 13.8 mph - N/A   Clear
6:56 AM 75.9 °F 46.0 °F 35% 29.85 in - WNW 9.2 mph - N/A   Clear
7:56 AM 80.1 °F 43.0 °F 27% 29.86 in - WSW 11.5 mph - N/A   Clear
8:56 AM 82.9 °F 41.0 °F 23% 29.85 in - West 9.2 mph - N/A   Clear
9:56 AM 87.1 °F 39.0 °F 18% 29.84 in - NW 10.4 mph - N/A   Clear
10:56 AM 90.0 °F 36.0 °F 15% 29.83 in - WNW 8.1 mph 17.3 mph N/A   Clear
11:56 AM 91.9 °F 35.1 °F 13% 29.81 in - North 12.7 mph 23.0 mph N/A   Clear
12:56 PM 93.0 °F 34.0 °F 12% 29.80 in - NNW 11.5 mph 20.7 mph N/A   Clear
1:56 PM 93.9 °F 32.0 °F 11% 29.77 in - NW 11.5 mph 23.0 mph N/A   Clear
3:56 PM 93.9 °F 35.1 °F 13% 29.73 in - NW 23.0 mph 28.8 mph 0.00 in   Clear
4:56 PM 91.9 °F 36.0 °F 14% 29.72 in - NW 17.3 mph 27.6 mph 0.00 in   Clear
5:56 PM 90.0 °F 36.0 °F 15% 29.71 in - NW 23.0 mph 26.5 mph 0.00 in   Clear
6:56 PM 88.0 °F 34.0 °F 15% 29.73 in - NW 18.4 mph 25.3 mph N/A   Clear
7:56 PM 84.0 °F 35.1 °F 17% 29.75 in - WNW 10.4 mph - N/A   Clear
8:56 PM 79.0 °F 36.0 °F 21% 29.77 in - WSW 9.2 mph - N/A   Clear
9:56 PM 79.0 °F 37.0 °F 22% 29.79 in - SW 8.1 mph - N/A   Clear
10:56 PM 77.0 °F 39.0 °F 25% 29.80 in - WSW 11.5 mph - N/A   Clear
11:56 PM 75.0 °F 46.9 °F 37% 29.80 in - SW 9.2 mph - N/A   Clear